Location: Newark
(49.3000°N, 9.4667°E)
Time: 13:34:01
(UTC+00:00)

Tiros 1 - Pass Details

Date: 26 May 2019
Orbit: 631 x 664 km, 48.4° (Epoch: 19 June)

Event Time Altitude Azimuth Distance (km) Brightness Sun altitude
Rises 09:47:54 0° 238° (WSW) 2,917 10.5 56.5°
Reaches altitude 10° 09:50:15 10° 234° (SW) 2,015 9.8 56.7°
Maximum altitude 09:54:45 52° 158° (SSE) 798 10.0 57.2°
Drops below altitude 10° 09:59:18 10° 83° (E) 2,039 10.1 57.7°
Sets 10:01:41 0° 79° (ENE) 2,956 10.7 57.9°
